Location: Newark
(34.1333°N, 7.9667°W)
Time: 10:49:06
(UTC+00:00)

COSMOS 2251 DEB - Pass Details

Date: 24 February 2024
Orbit: 726 x 941 km, 73.7° (Epoch: 12 April)

Event Time Altitude Azimuth Distance (km) Brightness Sun altitude
Rises 04:15:28 0° 142° (SE) 3,591 ? -36.2°
Reaches altitude 10° 04:20:05 10° 111° (ESE) 2,643 ? -35.2°
Maximum altitude 04:21:53 11° 93° (E) 2,539 ? -34.9°
Drops below altitude 10° 04:23:40 10° 76° (ENE) 2,629 ? -34.5°
Sets 04:28:12 0° 45° (NE) 3,541 ? -33.6°
